Regional Weather Roundup
Issued by NWS Sioux Falls, SD

Home | Current Version | Previous Version | Graphics & Text | Print | Product List | Glossary Off
Versions: 1 2 3 4 5 6 7 8 9 10 11 12 13 14 15 16 17 18 19 20 21 22 23 24 25 26 27 28 29 30 31 32 33 34 35 36 37 38 39 40 41 42 43 44 45 46 47 48 49 50

000
ASUS43 KFSD 290910
RWRFSD

WEATHER ROUNDUP FOR SE SOUTH DAKOTA/SW MINNESOTA/NW IOWA
NATIONAL WEATHER SERVICE SIOUX FALLS SD
400 AM CDT WED MAR 29 2017

NOTE: "FAIR" INDICATES FEW OR NO CLOUDS BELOW 12,000 FEET WITH NO
SIGNIFICANT WEATHER AND OR OBSTRUCTIONS TO VISIBILITY.


SDZ038>040-050-052>070-291000-
SOUTHEAST SOUTH DAKOTA

CITY           SKY/WX    TMP DP  RH WIND       PRES   REMARKS
BROOKINGS      CLOUDY    37  34  89 CALM      30.15R
CHAMBERLAIN    CLOUDY    47  43  88 CALM      30.14F
HURON          CLOUDY    43  39  86 S3        30.15R
MADISON        FAIR      39  39 100 NE8       30.15S
MITCHELL       CLOUDY    39  37  92 N5        30.15S
SIOUX FALLS    MOCLDY    40  37  89 CALM      30.15R
WINNER         LGT RAIN  44  41  89 CALM      30.14F
YANKTON        CLOUDY    45  39  81 NE6       30.12F
$$

MNZ071-072-080-081-089-090-097-098-291000-
SOUTHWEST MINNESOTA

CITY           SKY/WX    TMP DP  RH WIND       PRES   REMARKS
FAIRMONT       CLOUDY    41  36  82 CALM      30.16F
JACKSON        CLOUDY    39  36  87 E3        30.15F
LUVERNE        MOCLDY    37  34  87 NE3       30.15R
MARSHALL       CLOUDY    40  34  79 CALM      30.17S
MONTEVIDEO     CLOUDY    37  30  75 S5        30.17S
PIPESTONE      MOCLDY    41  32  70 E3        30.14S
REDWOOD FALLS  CLOUDY    45  32  60 E6        30.17S
TRACY          CLOUDY    45  37  73 CALM      30.16F
WINDOM         MOCLDY    41  36  81 E5        30.15F
WORTHINGTON    CLOUDY    39  36  89 E3        30.15F
$$

IAZ001>003-012>014-020>022-031-032-NEZ013-014-SDZ071-291000-
NORTHWEST IOWA

CITY           SKY/WX    TMP DP  RH WIND       PRES   REMARKS
CHEROKEE       DRIZZLE   44  43  97 CALM      30.12F
DENISON        LGT RAIN  45  43  93 NE12      30.10F
ESTHERVILLE    MOCLDY    38  38 100 NE6       30.14F
LE MARS        CLOUDY    45  41  87 NE5       30.13S
ORANGE CITY    CLOUDY    45  43  93 NE3       30.13S
SHELDON        CLOUDY    39  37  93 NE8       30.12F
SIOUX CITY     CLOUDY    46  43  89 E8        30.11F
SPENCER        MOCLDY    41  39  93 NE5       30.13F
STORM LAKE     CLOUDY    43  41  93 NE9       30.11F
$$

ABBREVIATIONS USED IN REMARKS
   TC - TEMPERATURE IN CELSIUS
  WCI - WIND CHILL INDEX
   HX - HEAT INDEX
  VSB - VISIBILITY





USA.gov is the U.S. government's official web portal to all federal, state and local government web resources and services.